Location: Wells
(51.2093°N, 2.6446°W)
Time: 09:03:49
(UTC+01:00)

SO-50 - Pass Details

Date: 23 March 2026
Orbit: 567 x 673 km, 64.6° (Epoch: 17 April)

Event Time Altitude Azimuth Distance (km) Brightness Sun altitude
Rises 20:40:48 0° 306° (NW) 3,015 ? -20.5°
Reaches altitude 10° 20:43:53 10° 326° (NW) 2,110 ? -20.9°
Maximum altitude 20:47:03 17° 7° (N) 1,685 ? -21.3°
Enters shadow 20:50:03 11° 47° (NE) 2,073 ? -21.7°
